Volver al catálogo

XINGCHI-1 02A

ActivoCienciaSSO
NORAD 58496·PAYLOAD·🇨🇳 China

Lanzado Dec 4, 2023 desde Jiuquan Satellite Launch Center

Loading…

Próximos Pases (próximas 24 horas)

TLE

ActualizadoSource: Space-Track

Época: Sep 14, 2026, 15:46 UTC

1 58496U 23187A   26257.65748212  .00001067  00000-0  13303-3 0  9997
2 58496  97.9220 339.9381 0010854 206.5563 153.5096 14.84478546150392

Sigue XINGCHI-1 02A en tiempo real con AllMySat

Download on the App Store